AirNav   SIMCOM
 
 305 users online  

8GA8 Falcons Aerie Airport
Carrollton, Georgia, USA

GOING TO CARROLLTON?


FAA INFORMATION EFFECTIVE 09 NOVEMBER 2017

Location

FAA Identifier: 8GA8
Lat/Long: 33-34-38.3980N / 085-00-10.7930W
33-34.639967N / 085-00.179883W
33.5773328 / -85.0029981
(estimated)
Elevation: 1180 ft. / 360 m (estimated)
Variation: 02W (1990)
From city: 5 miles E of CARROLLTON, GA
Time zone: UTC -5 (UTC -4 during Daylight Saving Time)
Zip code: 30116

Airport Operations

Airport use: Private use. Permission required prior to landing
Activation date: 03/1992
Control tower: no
ARTCC: ATLANTA CENTER
FSS: MACON FLIGHT SERVICE STATION
Attendance: IREG
Wind indicator: yes
Segmented circle: no

Airport Communications

WX AWOS-3 at CTJ (8 nm NW): 118.175 (770-214-9667)
WX AWOS-3PT at CCO (20 nm SE): 118.975 (770-254-1617)

Nearby radio navigation aids

VOR radial/distance  VOR name  Freq  Var
ATLr269/28.6ATLANTA VORTAC116.9005W
LGCr017/33.3LAGRANGE VORTAC115.6001E
RMGr170/35.6ROME VORTAC115.4001E
PDKr248/39.4PEACHTREE VOR/DME116.6005W

 
NDB name  Hdg/Dist  Freq  Var  ID
CARROLLTON088/6.427804WGPQ --. .--. --.-
COWETA COUNTY326/24.123403WEQQ . --.- --.-
PECAT308/30.731605WFFC ..-. ..-. -.-.
CARTERSVILLE196/38.230804WEVZ . ...- --..

Airport Services

Runway Information

Runway 17/35

Dimensions: 2000 x 60 ft. / 610 x 18 m
Surface: turf
RUNWAY 17  RUNWAY 35
Traffic pattern: leftleft

Airport Ownership and Management from official FAA records

Ownership: Privately-owned
Owner: BART STONE
1451 HORSLEY MILL RD
CARROLLTON, GA 30117
Phone (770) 617-4566

Airport Operational Statistics

Aircraft based on the field: 1
Single engine airplanes: 1
    

Instrument Procedures

There are no published instrument procedures at 8GA8.

Some nearby airports with instrument procedures:

KCTJ - West Georgia Regional Airport-O V Gray Field (8 nm NW)
KCCO - Newnan Coweta County Airport (20 nm SE)
KPUJ - Paulding Northwest Atlanta Airport (20 nm N)
KFFC - Atlanta Regional Airport-Falcon Field (25 nm SE)
KFTY - Fulton County Airport-Brown Field (27 nm NE)
 
Loc | Ops | Rwys | IFR | FBO | Links
Com | Nav | Svcs | Stats | Notes


 
Area around 8GA8 (Falcons Aerie Airport)
 
Road maps at: MapQuest Bing Google
 
Aerial photo
No photo
 
Sectional chart

 
Airport distance calculator
Flying to Falcons Aerie Airport? Find the distance to fly.

From to 8GA8

Sunrise and sunset
Times for 18-Nov-2017
 Local
(UTC-5)
 Zulu
(UTC)
Morning civil twilight06:4911:49
Sunrise07:1612:16
Sunset17:3522:35
Evening civil twilight18:0123:01

Current date and time
Zulu (UTC)  18-Nov-2017 10:13:05
Local (UTC-5)  18-Nov-2017 05:13:05
 
METAR
KCTJ 
8nm NW 
180955Z AUTO 00000KT 10SM SCT029 05/04 A3004 RMK AO2 T00500043
KCCO 
20nm SE 
180955Z AUTO 14004KT 10SM CLR 08/05 A3002 RMK AO2 T00760051
TAF
KFTY 
27nm NE 
180539Z 1806/1906 00000KT P6SM FEW250 FM180900 16003KT P6SM SCT090 FM181400 19010G18KT P6SM BKN040 FM181800 20012G20KT P6SM BKN035 FM182300 23018G28KT P6SM VCSH OVC030 PROB30 1901/1905 29020G35KT SHRA OVC025
KATL 
28nm E 
180731Z 1808/1912 VRB04KT P6SM SCT250 FM180900 15005KT P6SM SCT090 FM181500 19010G20KT P6SM BKN040 FM181800 21012G25KT P6SM BKN035 FM190000 23018G30KT P6SM VCSH OVC030 PROB30 1901/1905 29020G35KT SHRA OVC025 FM190600 31018G25KT P6SM VCSH BKN030
KMGE 
32nm NE 
180700Z 1807/1912 VRB06KT 9999 SKC QNH3004INS BECMG 1808/1809 VRB06KT 9999 SCT040 BKN060 QNH2991INS BECMG 1817/1818 19012G18KT 9999 BKN020 OVC030 QNH2982INS BECMG 1820/1821 19012KT 9999 BKN020 QNH2971INS BECMG 1905/1906 19015G30KT 9999 BKN030 QNH2974INS TX19/1821Z TN03/1812Z LAST NO AMDS AFT 1807 NEXT 1812
KRYY 
33nm NE 
180539Z 1806/1906 13004KT P6SM FEW250 FM180900 15005KT P6SM SCT090 FM181500 19010G18KT P6SM BKN040 FM181800 23012G20KT P6SM BKN035 FM182300 24018G28KT P6SM VCSH OVC030 PROB30 1901/1905 29020G35KT SHRA OVC025
NOTAMs
Click for the latest NOTAMs
NOTAMs are issued by the DoD/FAA and will open in a separate window not controlled by AirNav.

 

 
 

Would you like to see your business listed on this page?

 If your business provides an interesting product or service to pilots, flight crews, aircraft, or users of the Falcons Aerie Airport, you should consider listing it here.  To start the listing process, click on the button below
 
Add a business
 

Other Pages about Falcons Aerie Airport

Update a link
 
Copyright © AirNav, LLC. All rights reserved. Privacy Policy  Contact